Regional Weather Roundup
Issued by NWS

Home | Current Version | Previous Version | Graphics & Text | Print | Product List | Glossary On
Versions: 1 2 3 4 5 6 7 8 9 10 11 12 13 14 15 16 17 18 19 20 21 22 23 24 25 26 27 28 29 30 31 32 33 34 35 36 37 38 39 40 41 42 43 44 45 46 47 48 49 50
000
ASUS45 KABQ 201110
RWRNM
WEATHER ROUNDUP FOR NEW MEXICO
NATIONAL WEATHER SERVICE ALBUQUERQUE NM
500 AM MDT WED AUG 20 2014

NOTE: "FAIR" MEANS FEW OR NO CLOUDS BELOW 12,000 FEET AGL WITH NO
       SIGNIFICANT WEATHER OR OBSTRUCTIONS TO VISION.

      THIS PRODUCT IS RELEASED AS TWO VERSIONS.  ONE VERSION NEAR
      THE TOP OF THE HOUR CONTAINING PRELIMINARY DATA FROM ALBUQUERQUE
      AND OTHER STATIONS.  A FINAL VERSION WITH ADDITIONAL DATA IS
      ISSUED ABOUT 10 MINUTES AFTER THE HOUR.

NMZ501-503-504-510>518-201200-
NORTHWEST PLATEAU/NORTHCENTRAL MOUNTAINS

CITY           SKY/WX    TMP DP  RH WIND       PRES   REMARKS
FARMINGTON     MOCLDY    62  58  86 CALM      30.05S
LOS ALAMOS     CLOUDY    62  48  59 CALM      30.14S
SANTA FE       CLOUDY    62  51  67 W6        30.08S
TAOS           MOCLDY    55  43  62 SE6       30.14S
ANGEL FIRE     CLOUDY    51  45  82 CALM      30.21F

$$
NMZ402-403-502-505>509-201200-
WESTCENTRAL MOUNTAINS/SOUTHWEST MOUNTAINS

CITY           SKY/WX    TMP DP  RH WIND       PRES   REMARKS
GALLUP         CLEAR     53  51  93 S5        30.15R
SILVER CITY    CLOUDY    63  57  82 MISG      30.09S

$$
NMZ407-409-411-412-201200-
SOUTHERN DESERTS

CITY           SKY/WX    TMP DP  RH WIND       PRES   REMARKS
LORDSBURG      FAIR      61  59  94 W6        30.06R
DEMING         MOCLDY    64  58  80 W12       30.02S
LAS CRUCES     PTCLDY    64  58  80 W15       30.00S
HOLLOMAN AFB   PTCLDY    70  58  66 S17       29.95S
ALAMOGORDO     PTCLDY    68  57  68 S10       29.97S
T OR C         MOCLDY    71  56  58 NW8       30.00R

$$
NMZ519>523-201200-
CENTRAL VALLEYS/CENTRAL HIGHLANDS

CITY           SKY/WX    TMP DP  RH WIND       PRES   REMARKS
ALBUQUERQUE    CLOUDY    68  52  56 W3        30.05S
DOUBLE EAGLE   CLOUDY    64  53  68 CALM      30.09R
MORIARTY ARPT  FAIR      61  50  67 W5        30.10R
CLINES CORNERS MOCLDY    59  49  69 W10       30.11R
BELEN          FAIR      65  55  70 NW5       30.05R
SOCORRO        FAIR      69  56  62 CALM      30.02R

$$
NMZ524>526-539-540-201200-
SOUTHCENTRAL MOUNTAINS

CITY           SKY/WX    TMP DP  RH WIND       PRES   REMARKS
RUIDOSO        PTCLDY    57  50  77 SW7       30.14S

$$
NMZ527>531-201200-
NORTHEAST HIGHLANDS/NORTHEAST PLAINS

CITY           SKY/WX    TMP DP  RH WIND       PRES   REMARKS
LAS VEGAS      PTCLDY    56  45  66 E3        30.09R
RATON          MOCLDY    57  48  72 NW7       30.04R
CLAYTON        CLEAR     66  56  70 SW9       29.95S

$$
NMZ532>537-201200-
EASTCENTRAL PLAINS

CITY           SKY/WX    TMP DP  RH WIND       PRES   REMARKS
TUCUMCARI      CLEAR     71  57  61 SW10      29.90S
CANNON AFB     CLEAR     67  64  89 S5        29.95S
CLOVIS AIRPORT   N/A     66  59  77 S7        29.97S

$$
NMZ028-029-538-201200-
SOUTHEAST PLAINS

CITY           SKY/WX    TMP DP  RH WIND       PRES   REMARKS
ROSWELL        CLEAR     68  58  70 SW5       29.90R
ARTESIA        PTCLDY    72  57  60 SW3       29.91R
CARLSBAD       CLOUDY    76  60  57 N3        29.88R


$$


USA.gov is the U.S. government's official web portal to all federal, state and local government web resources and services.